Powrót do katalogu

STARLINK-5653

AktywnyŁącznośćVLEO
NORAD 55345·PAYLOAD·🇺🇸 United States

Wystrzelony Jan 26, 2023 z Cape Canaveral Space Force Station

Loading…

Następne Przeloty (najbliższe 24 godziny)

TLE

ŚwieżeSource: CelesTrak SupGP

Epoka: Sep 15, 2026, 01:38 UTC

1 55345C 23013Q   26258.06854167  .00032533  00000+0  11784-2 0  2587
2 55345  43.0004 299.5401 0001184 265.0836  37.9785 15.27560255    17

Śledź STARLINK-5653 w czasie rzeczywistym z AllMySat

Download on the App Store